Torna al catalogo

FREGAT R/B

AttivoHEO
NORAD 37373·ROCKET BODY·🇷🇺 Russia

Lanciato Feb 26, 2011 da Plesetsk Cosmodrome

Loading…

Prossimi Passaggi (prossime 24 ore)

TLE

AggiornatoSource: Space-Track

Epoca: Sep 14, 2026, 02:01 UTC

1 37373U 11009B   26257.08464167 -.00000066  00000-0  00000-0 0  9995
2 37373  65.6491 320.6972 0068570  86.6313 306.7805  2.08582566118425

Traccia FREGAT R/B in tempo reale con AllMySat

Download on the App Store